JBU98 KDEN-KJFK

Flight info

Callsign JBU98
Flight time 3h 5m
Altitude 37000
Route EMMYS8 ZIRKL MCK LMN WELKY JAVAS KG66K CADIZ WEEVR WWSHR Q29 JHW Q476 WLKES PUCKY1
Aircraft A320/M-SDE3FGHIRWY/LB1

Departure

Time 2026-05-07 02:45
Airport Denver International Airport (KDEN)

Arrival

Time 2026-05-07 05:50
Airport John F. Kennedy International Airport (KJFK)
Time Latitude Longitude Altitude Speed Heading
2026-05-07 02:25 39.85437 -104.67498 5386 ft 0 kts 186°
2026-05-07 02:32 39.85442 -104.67497 5386 ft 3 kts 186°
2026-05-07 02:32 39.85468 -104.67494 5383 ft 4 kts 186°
2026-05-07 02:32 39.85496 -104.67490 5384 ft 4 kts 186°
2026-05-07 02:32 39.85523 -104.67486 5386 ft 4 kts 186°
2026-05-07 02:33 39.85548 -104.67482 5385 ft 2 kts 186°
2026-05-07 02:33 39.85549 -104.67482 5385 ft 0 kts 186°
2026-05-07 02:38 39.85528 -104.67448 5386 ft 12 kts 95°
2026-05-07 02:38 39.85573 -104.67347 5386 ft 14 kts 53°
2026-05-07 02:39 39.85630 -104.67233 5386 ft 16 kts 65°
2026-05-07 02:39 39.85658 -104.67083 5386 ft 18 kts 84°
2026-05-07 02:39 39.85661 -104.66910 5386 ft 20 kts 90°
2026-05-07 02:39 39.85659 -104.66723 5386 ft 21 kts 91°
2026-05-07 02:40 39.85663 -104.66561 5384 ft 12 kts 77°
2026-05-07 02:40 39.85678 -104.66445 5387 ft 13 kts 87°
2026-05-07 02:40 39.85677 -104.66333 5393 ft 10 kts 91°
2026-05-07 02:40 39.85692 -104.66259 5389 ft 7 kts 52°
2026-05-07 02:41 39.85737 -104.66235 5397 ft 8 kts
2026-05-07 02:41 39.85819 -104.66236 5395 ft 15 kts 360°
2026-05-07 02:41 39.85933 -104.66234 5392 ft 18 kts
2026-05-07 02:41 39.86069 -104.66232 5389 ft 21 kts
2026-05-07 02:42 39.86226 -104.66231 5384 ft 24 kts
2026-05-07 02:42 39.86401 -104.66228 5383 ft 26 kts
2026-05-07 02:42 39.86576 -104.66225 5385 ft 25 kts
2026-05-07 02:42 39.86763 -104.66224 5378 ft 29 kts
2026-05-07 02:43 39.86973 -104.66222 5370 ft 32 kts
2026-05-07 02:43 39.87204 -104.66218 5365 ft 34 kts
2026-05-07 02:43 39.87438 -104.66216 5364 ft 30 kts
2026-05-07 02:43 39.87635 -104.66214 5362 ft 15 kts
2026-05-07 02:44 39.87722 -104.66203 5360 ft 13 kts 22°
2026-05-07 02:44 39.87754 -104.66082 5357 ft 17 kts 90°
2026-05-07 02:44 39.87749 -104.65804 5355 ft 60 kts 91°
2026-05-07 02:44 39.87741 -104.64952 5351 ft 123 kts 90°
2026-05-07 02:45 39.87732 -104.63606 5331 ft 173 kts 91°
2026-05-07 02:45 39.87715 -104.61944 5626 ft 191 kts 94°
2026-05-07 02:45 39.87698 -104.60142 6229 ft 203 kts 93°
2026-05-07 02:45 39.87687 -104.58253 6870 ft 211 kts 93°
2026-05-07 02:46 39.87687 -104.56343 7399 ft 213 kts 91°
2026-05-07 02:46 39.87695 -104.54384 7860 ft 221 kts 90°
2026-05-07 02:46 39.87710 -104.52340 8294 ft 229 kts 89°
2026-05-07 02:46 39.87701 -104.50199 8575 ft 246 kts 90°
2026-05-07 02:47 39.87647 -104.47870 8765 ft 270 kts 91°
2026-05-07 02:47 39.87580 -104.45328 9079 ft 292 kts 90°
2026-05-07 02:47 39.87514 -104.42633 9671 ft 301 kts 89°
2026-05-07 02:47 39.87460 -104.39870 9998 ft 308 kts 88°
2026-05-07 02:48 39.87428 -104.37026 10354 ft 323 kts 88°
2026-05-07 02:48 39.87414 -104.34030 10740 ft 336 kts 87°
2026-05-07 02:48 39.87405 -104.30970 11350 ft 341 kts 86°
2026-05-07 02:48 39.87396 -104.27859 11888 ft 346 kts 86°
2026-05-07 02:49 39.87387 -104.24712 12546 ft 348 kts 86°
2026-05-07 02:49 39.87375 -104.21555 13219 ft 351 kts 85°
2026-05-07 02:49 39.87360 -104.18348 13881 ft 355 kts 85°
2026-05-07 02:49 39.87342 -104.15088 14485 ft 358 kts 85°
2026-05-07 02:50 39.87322 -104.11857 15111 ft 359 kts 85°
2026-05-07 02:50 39.87300 -104.08584 15739 ft 360 kts 85°
2026-05-07 02:50 39.87277 -104.05361 16374 ft 361 kts 85°
2026-05-07 02:50 39.87253 -104.02079 17011 ft 363 kts 85°
2026-05-07 02:51 39.87227 -103.98798 17652 ft 364 kts 85°
2026-05-07 02:51 39.87199 -103.95457 18290 ft 365 kts 85°
2026-05-07 02:51 39.87171 -103.92136 18853 ft 367 kts 84°
2026-05-07 02:51 39.87305 -103.88839 19375 ft 366 kts 78°
2026-05-07 02:52 39.87539 -103.85538 19922 ft 368 kts 78°
2026-05-07 02:52 39.87777 -103.82200 20424 ft 372 kts 78°
2026-05-07 02:52 39.88016 -103.78832 20921 ft 375 kts 78°
2026-05-07 02:52 39.88255 -103.75436 21409 ft 377 kts 78°
2026-05-07 02:53 39.88503 -103.72027 21894 ft 379 kts 77°
2026-05-07 02:53 39.88834 -103.68612 22370 ft 381 kts 75°
2026-05-07 02:53 39.89231 -103.65201 22861 ft 382 kts 74°
2026-05-07 02:53 39.89659 -103.61780 23365 ft 385 kts 74°
2026-05-07 02:54 39.90094 -103.58319 23844 ft 388 kts 74°
2026-05-07 02:54 39.90518 -103.54845 24261 ft 390 kts 75°
2026-05-07 02:54 39.90932 -103.51335 24687 ft 393 kts 75°
2026-05-07 02:54 39.91337 -103.47803 25122 ft 396 kts 75°
2026-05-07 02:55 39.91738 -103.44253 25510 ft 398 kts 75°
2026-05-07 02:55 39.92144 -103.40660 25897 ft 401 kts 75°
2026-05-07 02:55 39.92548 -103.37071 26290 ft 403 kts 75°
2026-05-07 02:55 39.92954 -103.33446 26699 ft 405 kts 75°
2026-05-07 02:56 39.93362 -103.29793 27079 ft 407 kts 75°
2026-05-07 02:56 39.93770 -103.26133 27451 ft 410 kts 75°
2026-05-07 02:56 39.94178 -103.22460 27819 ft 412 kts 75°
2026-05-07 02:56 39.94592 -103.18752 28186 ft 414 kts 75°
2026-05-07 02:57 39.95005 -103.15035 28539 ft 416 kts 75°
2026-05-07 02:57 39.95424 -103.11246 28897 ft 419 kts 75°
2026-05-07 02:57 39.95840 -103.07474 29238 ft 421 kts 75°
2026-05-07 02:57 39.96254 -103.03694 29577 ft 423 kts 75°
2026-05-07 02:58 39.96670 -102.99884 29918 ft 426 kts 75°
2026-05-07 02:58 39.97090 -102.96041 30255 ft 428 kts 75°
2026-05-07 02:58 39.97509 -102.92196 30552 ft 430 kts 75°
2026-05-07 02:58 39.97928 -102.88322 30822 ft 432 kts 75°
2026-05-07 02:59 39.98346 -102.84437 31087 ft 435 kts 76°
2026-05-07 02:59 39.98768 -102.80525 31354 ft 437 kts 76°
2026-05-07 02:59 39.99193 -102.76588 31655 ft 439 kts 76°
2026-05-07 02:59 39.99616 -102.72635 31907 ft 442 kts 76°
2026-05-07 03:00 40.00039 -102.68652 32256 ft 442 kts 76°
2026-05-07 03:00 40.00458 -102.64690 32633 ft 442 kts 76°
2026-05-07 03:00 40.00876 -102.60708 32994 ft 442 kts 76°
2026-05-07 03:00 40.01290 -102.56749 33360 ft 442 kts 76°
2026-05-07 03:01 40.01704 -102.52783 33730 ft 441 kts 77°
2026-05-07 03:01 40.02117 -102.48809 34095 ft 441 kts 77°
2026-05-07 03:01 40.02529 -102.44851 34385 ft 441 kts 77°
2026-05-07 03:01 40.02945 -102.40866 34621 ft 442 kts 77°
2026-05-07 03:02 40.03358 -102.36899 34872 ft 444 kts 77°
2026-05-07 03:02 40.03775 -102.32879 35021 ft 448 kts 77°
2026-05-07 03:02 40.04195 -102.28842 35141 ft 452 kts 77°
2026-05-07 03:02 40.04620 -102.24760 35264 ft 455 kts 77°
2026-05-07 03:03 40.05050 -102.20595 35377 ft 459 kts 77°
2026-05-07 03:03 40.05468 -102.16502 35498 ft 462 kts 77°
2026-05-07 03:03 40.05891 -102.12326 35619 ft 466 kts 78°
2026-05-07 03:03 40.06315 -102.08099 36053 ft 460 kts 78°
2026-05-07 03:04 40.06723 -102.03980 36489 ft 457 kts 78°
2026-05-07 03:04 40.07136 -101.99849 36681 ft 458 kts 78°
2026-05-07 03:04 40.07550 -101.95722 36852 ft 460 kts 78°
2026-05-07 03:04 40.07963 -101.91585 37029 ft 461 kts 78°
2026-05-07 03:05 40.08379 -101.87431 37139 ft 461 kts 78°
2026-05-07 03:05 40.08789 -101.83297 37164 ft 458 kts 78°
2026-05-07 03:05 40.09599 -101.75071 37161 ft 456 kts 78°
2026-05-07 03:06 40.10406 -101.66843 37185 ft 456 kts 79°
2026-05-07 03:06 40.11205 -101.58610 37162 ft 458 kts 79°
2026-05-07 03:07 40.11997 -101.50337 37158 ft 458 kts 79°
2026-05-07 03:07 40.12785 -101.42077 37157 ft 459 kts 79°
2026-05-07 03:08 40.13572 -101.33809 37160 ft 459 kts 79°
2026-05-07 03:08 40.14350 -101.25533 37177 ft 459 kts 79°
2026-05-07 03:09 40.15004 -101.18585 37158 ft 460 kts 79°
2026-05-07 03:09 40.15783 -101.10288 37159 ft 460 kts 79°
2026-05-07 03:10 40.16559 -101.01983 37162 ft 460 kts 79°
2026-05-07 03:10 40.17315 -100.93675 37159 ft 461 kts 79°
2026-05-07 03:11 40.18064 -100.85358 37159 ft 461 kts 79°
2026-05-07 03:11 40.18817 -100.77030 37148 ft 461 kts 79°
2026-05-07 03:12 40.19562 -100.68723 37150 ft 461 kts 79°
2026-05-07 03:12 40.20294 -100.60392 37151 ft 461 kts 80°
2026-05-07 03:13 40.21033 -100.52066 37163 ft 461 kts 80°
2026-05-07 03:13 40.21762 -100.43731 37152 ft 462 kts 80°
2026-05-07 03:14 40.22477 -100.35365 37152 ft 462 kts 80°
2026-05-07 03:15 40.23557 -100.22773 37129 ft 463 kts 80°
2026-05-07 03:15 40.24272 -100.14396 37142 ft 463 kts 81°
2026-05-07 03:16 40.24976 -100.06017 37132 ft 464 kts 81°
2026-05-07 03:16 40.25674 -99.97623 37134 ft 464 kts 81°
2026-05-07 03:17 40.26365 -99.89226 37139 ft 464 kts 81°
2026-05-07 03:17 40.27052 -99.80811 37161 ft 465 kts 81°
2026-05-07 03:18 40.27739 -99.72390 37147 ft 466 kts 81°
2026-05-07 03:18 40.28421 -99.63954 37146 ft 466 kts 81°
2026-05-07 03:19 40.29093 -99.55456 37145 ft 467 kts 81°
2026-05-07 03:19 40.29756 -99.46972 37146 ft 467 kts 81°
2026-05-07 03:20 40.30421 -99.38495 37146 ft 468 kts 82°
2026-05-07 03:20 40.31078 -99.30002 37120 ft 469 kts 82°
2026-05-07 03:21 40.31726 -99.21492 37121 ft 470 kts 82°
2026-05-07 03:21 40.32371 -99.12966 37131 ft 470 kts 82°
2026-05-07 03:22 40.33017 -99.04436 37144 ft 471 kts 82°
2026-05-07 03:22 40.33658 -98.95874 37129 ft 472 kts 82°
2026-05-07 03:23 40.34286 -98.87315 37123 ft 473 kts 83°
2026-05-07 03:23 40.34904 -98.78724 37135 ft 473 kts 83°
2026-05-07 03:24 40.35523 -98.70139 37154 ft 474 kts 83°
2026-05-07 03:24 40.36139 -98.61514 37118 ft 475 kts 83°
2026-05-07 03:25 40.36752 -98.52872 37120 ft 476 kts 83°
2026-05-07 03:25 40.37352 -98.44224 37114 ft 477 kts 83°
2026-05-07 03:26 40.37942 -98.35565 37115 ft 477 kts 83°
2026-05-07 03:26 40.38535 -98.26872 37113 ft 479 kts 84°
2026-05-07 03:27 40.39129 -98.18171 37106 ft 480 kts 84°
2026-05-07 03:27 40.39719 -98.09404 37108 ft 480 kts 84°
2026-05-07 03:28 40.40288 -98.00711 37107 ft 481 kts 84°
2026-05-07 03:28 40.40861 -97.91926 37121 ft 482 kts 84°
2026-05-07 03:29 40.41427 -97.83135 37108 ft 483 kts 84°
2026-05-07 03:29 40.41984 -97.74361 37104 ft 484 kts 84°
2026-05-07 03:30 40.42547 -97.65569 37112 ft 484 kts 84°
2026-05-07 03:30 40.43094 -97.56749 37118 ft 485 kts 85°
2026-05-07 03:31 40.43636 -97.47920 37088 ft 486 kts 85°
2026-05-07 03:31 40.44171 -97.39051 37086 ft 487 kts 85°
2026-05-07 03:32 40.44700 -97.30180 37097 ft 488 kts 85°
2026-05-07 03:32 40.45226 -97.21281 37099 ft 489 kts 85°
2026-05-07 03:33 40.45742 -97.12391 37097 ft 489 kts 85°
2026-05-07 03:33 40.46254 -97.03482 37106 ft 489 kts 85°
2026-05-07 03:34 40.46759 -96.94568 37113 ft 489 kts 85°
2026-05-07 03:34 40.47263 -96.85656 37118 ft 489 kts 85°
2026-05-07 03:35 40.47758 -96.76742 37124 ft 490 kts 85°
2026-05-07 03:35 40.48238 -96.67761 37121 ft 490 kts 85°
2026-05-07 03:36 40.48716 -96.58809 37110 ft 491 kts 85°
2026-05-07 03:36 40.49194 -96.49871 37109 ft 491 kts 86°
2026-05-07 03:37 40.49657 -96.40906 37092 ft 492 kts 86°
2026-05-07 03:37 40.50121 -96.31920 37095 ft 493 kts 86°
2026-05-07 03:38 40.50581 -96.22915 37096 ft 494 kts 86°
2026-05-07 03:38 40.51023 -96.13915 37087 ft 495 kts 86°
2026-05-07 03:39 40.51467 -96.04862 37092 ft 496 kts 87°
2026-05-07 03:39 40.51904 -95.95822 37090 ft 497 kts 87°
2026-05-07 03:40 40.52333 -95.86751 37092 ft 498 kts 87°
2026-05-07 03:40 40.52752 -95.77655 37092 ft 498 kts 87°
2026-05-07 03:41 40.53164 -95.68575 37118 ft 499 kts 88°
2026-05-07 03:41 40.53506 -95.60923 37086 ft 500 kts 88°
2026-05-07 03:42 40.53913 -95.51783 37090 ft 501 kts 88°
2026-05-07 03:42 40.54317 -95.42637 37091 ft 501 kts 88°
2026-05-07 03:43 40.54708 -95.33495 37096 ft 502 kts 88°
2026-05-07 03:43 40.55093 -95.24318 37099 ft 503 kts 88°
2026-05-07 03:44 40.55468 -95.15123 37104 ft 504 kts 88°
2026-05-07 03:44 40.55838 -95.05925 37112 ft 505 kts 88°
2026-05-07 03:45 40.56199 -94.96709 37120 ft 505 kts 88°
2026-05-07 03:45 40.56559 -94.87465 37120 ft 506 kts 89°
2026-05-07 03:46 40.56905 -94.78230 37102 ft 507 kts 89°
2026-05-07 03:46 40.57253 -94.68965 37105 ft 507 kts 89°
2026-05-07 03:47 40.57596 -94.59630 37108 ft 508 kts 89°
2026-05-07 03:47 40.57926 -94.50398 37091 ft 509 kts 89°
2026-05-07 03:48 40.58251 -94.41020 37088 ft 511 kts 89°
2026-05-07 03:48 40.58565 -94.31681 37090 ft 512 kts 89°
2026-05-07 03:49 40.58877 -94.22314 37093 ft 513 kts 89°
2026-05-07 03:49 40.59179 -94.12943 37109 ft 514 kts 89°
2026-05-07 03:50 40.59472 -94.03534 37102 ft 514 kts 89°
2026-05-07 03:50 40.60021 -93.94159 37105 ft 516 kts 80°
2026-05-07 03:51 40.61241 -93.84842 37107 ft 516 kts 81°
2026-05-07 03:51 40.62445 -93.75522 37094 ft 517 kts 81°
2026-05-07 03:52 40.63640 -93.66166 37097 ft 519 kts 81°
2026-05-07 03:52 40.64831 -93.56789 37104 ft 520 kts 81°
2026-05-07 03:53 40.66146 -93.47430 37117 ft 520 kts 78°
2026-05-07 03:53 40.67646 -93.38038 37123 ft 521 kts 78°
2026-05-07 03:54 40.69130 -93.28751 37130 ft 521 kts 78°
2026-05-07 03:54 40.70553 -93.19383 37136 ft 521 kts 79°
2026-05-07 03:55 40.71946 -93.09947 37137 ft 521 kts 79°
2026-05-07 03:55 40.73348 -93.00554 37142 ft 522 kts 79°
2026-05-07 03:56 40.74757 -92.91171 37134 ft 522 kts 79°
2026-05-07 03:56 40.76151 -92.81759 37135 ft 523 kts 79°
2026-05-07 03:57 40.77366 -92.72312 37134 ft 522 kts 83°
2026-05-07 03:57 40.78224 -92.62810 37110 ft 522 kts 85°
2026-05-07 03:58 40.79005 -92.53252 37108 ft 524 kts 85°
2026-05-07 03:58 40.79865 -92.43703 37110 ft 525 kts 84°
2026-05-07 03:59 40.80777 -92.34165 37119 ft 525 kts 84°
2026-05-07 03:59 40.81679 -92.24594 37126 ft 526 kts 84°
2026-05-07 04:00 40.82559 -92.15007 37119 ft 526 kts 85°
2026-05-07 04:00 40.83417 -92.05391 37122 ft 527 kts 85°
2026-05-07 04:01 40.84267 -91.95783 37127 ft 527 kts 85°
2026-05-07 04:01 40.85128 -91.86102 37112 ft 528 kts 85°
2026-05-07 04:02 40.85977 -91.76469 37105 ft 529 kts 85°
2026-05-07 04:02 40.86817 -91.66818 37108 ft 529 kts 85°
2026-05-07 04:03 40.87645 -91.57131 37109 ft 530 kts 85°
2026-05-07 04:03 40.88464 -91.47459 37108 ft 530 kts 85°
2026-05-07 04:04 40.89284 -91.37782 37109 ft 531 kts 85°
2026-05-07 04:04 40.90102 -91.28080 37124 ft 531 kts 85°
2026-05-07 04:05 40.90902 -91.18376 37149 ft 530 kts 85°
2026-05-07 04:05 40.91686 -91.08710 37111 ft 528 kts 85°
2026-05-07 04:06 40.92465 -90.99050 37097 ft 529 kts 85°
2026-05-07 04:06 40.93241 -90.89366 37095 ft 529 kts 85°
2026-05-07 04:07 40.94011 -90.79700 37103 ft 529 kts 86°
2026-05-07 04:07 40.94775 -90.70010 37113 ft 530 kts 86°
2026-05-07 04:08 40.95523 -90.60323 37121 ft 530 kts 86°
2026-05-07 04:08 40.96261 -90.50613 37126 ft 530 kts 86°
2026-05-07 04:09 40.96996 -90.40853 37128 ft 530 kts 86°
2026-05-07 04:09 40.97724 -90.31150 37118 ft 531 kts 86°
2026-05-07 04:10 40.98446 -90.21428 37113 ft 531 kts 86°
2026-05-07 04:10 40.99156 -90.11697 37113 ft 531 kts 86°
2026-05-07 04:11 40.99861 -90.01958 37111 ft 531 kts 86°
2026-05-07 04:11 41.00575 -89.92212 37086 ft 532 kts 86°
2026-05-07 04:12 41.01318 -89.82448 37087 ft 533 kts 86°
2026-05-07 04:12 41.02050 -89.72680 37091 ft 533 kts 86°
2026-05-07 04:13 41.02645 -89.64490 37099 ft 534 kts 86°
2026-05-07 04:13 41.03336 -89.54695 37106 ft 534 kts 86°
2026-05-07 04:14 41.04030 -89.44896 37111 ft 535 kts 86°
2026-05-07 04:14 41.04734 -89.35078 37115 ft 535 kts 86°
2026-05-07 04:15 41.05422 -89.25266 37116 ft 535 kts 86°
2026-05-07 04:15 41.06088 -89.15466 37110 ft 535 kts 86°
2026-05-07 04:16 41.06762 -89.05629 37103 ft 536 kts 87°
2026-05-07 04:16 41.07425 -88.95791 37107 ft 536 kts 87°
2026-05-07 04:17 41.08080 -88.85894 37112 ft 536 kts 87°
2026-05-07 04:17 41.08714 -88.76097 37080 ft 537 kts 87°
2026-05-07 04:18 41.09348 -88.66176 37083 ft 538 kts 87°
2026-05-07 04:18 41.09972 -88.56287 37087 ft 539 kts 88°
2026-05-07 04:19 41.10587 -88.46436 37088 ft 539 kts 88°
2026-05-07 04:19 41.11200 -88.36480 37081 ft 539 kts 88°
2026-05-07 04:20 41.11804 -88.26539 37080 ft 540 kts 88°
2026-05-07 04:20 41.12408 -88.16644 37089 ft 536 kts 87°
2026-05-07 04:21 41.13289 -88.01880 37072 ft 536 kts 88°
2026-05-07 04:21 41.13853 -87.92014 37082 ft 537 kts 88°
2026-05-07 04:22 41.14417 -87.82126 37089 ft 538 kts 88°
2026-05-07 04:22 41.14967 -87.72217 37094 ft 538 kts 88°
2026-05-07 04:23 41.15507 -87.62315 37093 ft 538 kts 88°
2026-05-07 04:23 41.16052 -87.52408 37086 ft 539 kts 88°
2026-05-07 04:24 41.16584 -87.42498 37081 ft 539 kts 88°
2026-05-07 04:24 41.17049 -87.32571 37062 ft 539 kts 90°
2026-05-07 04:25 41.17335 -87.22574 37059 ft 539 kts 91°
2026-05-07 04:25 41.17560 -87.12624 37075 ft 540 kts 91°
2026-05-07 04:26 41.17826 -87.02647 37074 ft 541 kts 91°
2026-05-07 04:26 41.18117 -86.92686 37048 ft 541 kts 91°
2026-05-07 04:27 41.18391 -86.82743 37054 ft 542 kts 91°
2026-05-07 04:27 41.18650 -86.72665 37071 ft 543 kts 91°
2026-05-07 04:28 41.18894 -86.62637 37074 ft 543 kts 91°
2026-05-07 04:28 41.19130 -86.52620 37044 ft 544 kts 91°
2026-05-07 04:29 41.19363 -86.42594 37057 ft 544 kts 92°
2026-05-07 04:29 41.19588 -86.32529 37061 ft 545 kts 92°
2026-05-07 04:30 41.19808 -86.22311 37051 ft 545 kts 92°
2026-05-07 04:30 41.20014 -86.12260 37048 ft 546 kts 92°
2026-05-07 04:31 41.20212 -86.02173 37047 ft 547 kts 92°
2026-05-07 04:31 41.20402 -85.92003 37049 ft 547 kts 92°
2026-05-07 04:32 41.20584 -85.81901 37059 ft 548 kts 92°
2026-05-07 04:32 41.20751 -85.71794 37058 ft 548 kts 92°
2026-05-07 04:33 41.20918 -85.61661 37058 ft 548 kts 92°
2026-05-07 04:33 41.21077 -85.51553 37061 ft 548 kts 92°
2026-05-07 04:34 41.21221 -85.41433 37029 ft 548 kts 92°
2026-05-07 04:34 41.21356 -85.31302 37027 ft 549 kts 92°
2026-05-07 04:35 41.21484 -85.21150 37037 ft 550 kts 92°
2026-05-07 04:35 41.21605 -85.10972 37047 ft 551 kts 93°
2026-05-07 04:36 41.21716 -85.00785 36995 ft 552 kts 93°
2026-05-07 04:36 41.21812 -84.90585 37003 ft 554 kts 93°
2026-05-07 04:37 41.21900 -84.80345 37019 ft 555 kts 93°
2026-05-07 04:37 41.21985 -84.70076 37029 ft 556 kts 93°
2026-05-07 04:38 41.22060 -84.59818 37013 ft 556 kts 93°
2026-05-07 04:38 41.22133 -84.49568 37021 ft 550 kts 93°
2026-05-07 04:39 41.22197 -84.39366 37031 ft 549 kts 93°
2026-05-07 04:39 41.22240 -84.29227 37042 ft 549 kts 94°
2026-05-07 04:40 41.22303 -84.19079 37007 ft 551 kts 91°
2026-05-07 04:40 41.22840 -84.08888 37018 ft 555 kts 86°
2026-05-07 04:41 41.23687 -83.98697 37015 ft 556 kts 86°
2026-05-07 04:41 41.24453 -83.88474 36995 ft 556 kts 88°
2026-05-07 04:42 41.25066 -83.78220 36990 ft 558 kts 88°
2026-05-07 04:42 41.25632 -83.67914 36997 ft 559 kts 88°
2026-05-07 04:43 41.26127 -83.59326 37008 ft 560 kts 88°
2026-05-07 04:43 41.26750 -83.49006 37005 ft 561 kts 88°
2026-05-07 04:44 41.27370 -83.38590 37020 ft 562 kts 88°
2026-05-07 04:44 41.27969 -83.28226 37030 ft 563 kts 88°
2026-05-07 04:45 41.28552 -83.17849 37044 ft 563 kts 88°
2026-05-07 04:45 41.29121 -83.07467 37023 ft 563 kts 88°
2026-05-07 04:46 41.29678 -82.97081 37032 ft 564 kts 89°
2026-05-07 04:46 41.30228 -82.86677 37030 ft 564 kts 89°
2026-05-07 04:47 41.30786 -82.76278 37008 ft 564 kts 89°
2026-05-07 04:47 41.31332 -82.65865 37016 ft 564 kts 89°
2026-05-07 04:48 41.31864 -82.55432 37028 ft 565 kts 89°
2026-05-07 04:48 41.32381 -82.45014 37066 ft 565 kts 89°
2026-05-07 04:49 41.32896 -82.34594 37024 ft 564 kts 89°
2026-05-07 04:49 41.33403 -82.24187 37035 ft 563 kts 89°
2026-05-07 04:50 41.33895 -82.13730 37041 ft 563 kts 89°
2026-05-07 04:50 41.35083 -82.03483 37043 ft 564 kts 72°
2026-05-07 04:51 41.37948 -81.93761 37020 ft 560 kts 63°
2026-05-07 04:51 41.41022 -81.84212 37017 ft 561 kts 63°
2026-05-07 04:52 41.44049 -81.74655 37018 ft 561 kts 64°
2026-05-07 04:52 41.47078 -81.65053 37000 ft 562 kts 63°
2026-05-07 04:53 41.50097 -81.55497 37050 ft 557 kts 64°
2026-05-07 04:53 41.53096 -81.45986 37054 ft 556 kts 64°
2026-05-07 04:54 41.56084 -81.36476 37051 ft 555 kts 64°
2026-05-07 04:54 41.59060 -81.26963 37019 ft 555 kts 64°
2026-05-07 04:55 41.62035 -81.17419 37022 ft 556 kts 64°
2026-05-07 04:55 41.64996 -81.07884 37068 ft 556 kts 64°
2026-05-07 04:56 41.67937 -80.98358 37054 ft 553 kts 64°
2026-05-07 04:56 41.70874 -80.88862 37037 ft 552 kts 64°
2026-05-07 04:57 41.73790 -80.79370 37044 ft 552 kts 64°
2026-05-07 04:57 41.76700 -80.69846 37048 ft 552 kts 64°
2026-05-07 04:58 41.79623 -80.60262 37047 ft 552 kts 64°
2026-05-07 04:58 41.82398 -80.50733 36983 ft 548 kts 67°
2026-05-07 04:59 41.84962 -80.41095 36986 ft 546 kts 68°
2026-05-07 04:59 41.87475 -80.31469 36995 ft 547 kts 68°
2026-05-07 05:00 41.90044 -80.21842 37003 ft 549 kts 68°
2026-05-07 05:00 41.92648 -80.12198 36982 ft 550 kts 68°
2026-05-07 05:01 41.95242 -80.02522 36997 ft 551 kts 68°
2026-05-07 05:01 41.97826 -79.92813 37031 ft 549 kts 68°
2026-05-07 05:02 42.00360 -79.83224 37030 ft 544 kts 68°
2026-05-07 05:02 42.02880 -79.73641 37007 ft 544 kts 68°
2026-05-07 05:03 42.05404 -79.64026 37003 ft 545 kts 68°
2026-05-07 05:03 42.07934 -79.54398 37003 ft 546 kts 68°
2026-05-07 05:04 42.10466 -79.44680 37000 ft 547 kts 69°
2026-05-07 05:04 42.12961 -79.35055 37016 ft 547 kts 69°
2026-05-07 05:05 42.15468 -79.25375 37022 ft 547 kts 69°
2026-05-07 05:05 42.17259 -79.15392 37020 ft 545 kts 88°
2026-05-07 05:06 42.16905 -79.05313 36984 ft 532 kts 108°
2026-05-07 05:06 42.14827 -78.95909 36983 ft 522 kts 117°
2026-05-07 05:07 42.12499 -78.86625 36996 ft 524 kts 117°
2026-05-07 05:07 42.10152 -78.77318 36992 ft 525 kts 117°
2026-05-07 05:08 42.07801 -78.68018 36975 ft 525 kts 118°
2026-05-07 05:08 42.05446 -78.58708 36969 ft 526 kts 118°
2026-05-07 05:09 42.03081 -78.49402 36966 ft 526 kts 119°
2026-05-07 05:09 42.00677 -78.40028 37001 ft 531 kts 118°
2026-05-07 05:10 41.98263 -78.30633 37003 ft 532 kts 118°
2026-05-07 05:10 41.95849 -78.21241 36997 ft 532 kts 118°
2026-05-07 05:11 41.93424 -78.11837 36998 ft 532 kts 119°
2026-05-07 05:11 41.90975 -78.02406 36996 ft 532 kts 119°
2026-05-07 05:12 41.88531 -77.93037 36958 ft 532 kts 119°
2026-05-07 05:12 41.86093 -77.83720 36967 ft 532 kts 119°
2026-05-07 05:13 41.83616 -77.74293 36976 ft 533 kts 120°
2026-05-07 05:13 41.81148 -77.64920 36975 ft 533 kts 119°
2026-05-07 05:14 41.78677 -77.55561 36951 ft 533 kts 120°
2026-05-07 05:14 41.76173 -77.46173 36957 ft 540 kts 120°
2026-05-07 05:15 41.73456 -77.36717 36996 ft 551 kts 122°
2026-05-07 05:15 41.71026 -77.28739 36981 ft 564 kts 121°
2026-05-07 05:16 41.68116 -77.18855 36591 ft 572 kts 121°
2026-05-07 05:16 41.65316 -77.08901 36512 ft 567 kts 120°
2026-05-07 05:17 41.64000 -77.03986 36530 ft 554 kts 119°
2026-05-07 05:17 41.62753 -76.99179 36816 ft 541 kts 118°
2026-05-07 05:17 41.61540 -76.94425 37125 ft 540 kts 118°
2026-05-07 05:17 41.60298 -76.89612 37128 ft 541 kts 119°
2026-05-07 05:18 41.59026 -76.84851 36868 ft 546 kts 118°
2026-05-07 05:18 41.57896 -76.80048 36948 ft 544 kts 115°
2026-05-07 05:18 41.56801 -76.75145 36675 ft 557 kts 115°
2026-05-07 05:18 41.55655 -76.70193 36112 ft 559 kts 117°
2026-05-07 05:19 41.54431 -76.65287 35563 ft 557 kts 119°
2026-05-07 05:19 41.53120 -76.60415 34967 ft 557 kts 121°
2026-05-07 05:19 41.51755 -76.55598 34492 ft 554 kts 121°
2026-05-07 05:19 41.50370 -76.50816 34047 ft 552 kts 122°
2026-05-07 05:20 41.48987 -76.46042 33543 ft 548 kts 121°
2026-05-07 05:20 41.47636 -76.41314 33084 ft 545 kts 121°
2026-05-07 05:20 41.46315 -76.36598 32764 ft 538 kts 121°
2026-05-07 05:20 41.45044 -76.31960 32635 ft 528 kts 121°
2026-05-07 05:21 41.43806 -76.27409 32515 ft 517 kts 121°
2026-05-07 05:21 41.41382 -76.18579 32276 ft 499 kts 122°
2026-05-07 05:21 41.40151 -76.14213 31828 ft 511 kts 122°
2026-05-07 05:22 41.38872 -76.09770 31338 ft 517 kts 122°
2026-05-07 05:22 41.37590 -76.05289 30846 ft 516 kts 122°
2026-05-07 05:22 41.36321 -76.00816 30378 ft 516 kts 122°
2026-05-07 05:22 41.35059 -75.96349 29885 ft 515 kts 122°
2026-05-07 05:23 41.33790 -75.91848 29318 ft 514 kts 122°
2026-05-07 05:23 41.32553 -75.87456 28781 ft 513 kts 122°
2026-05-07 05:23 41.31305 -75.83021 28168 ft 511 kts 121°
2026-05-07 05:23 41.30043 -75.78545 27639 ft 508 kts 121°
2026-05-07 05:24 41.28814 -75.74214 27105 ft 506 kts 121°
2026-05-07 05:24 41.27554 -75.69792 26607 ft 504 kts 121°
2026-05-07 05:24 41.26273 -75.65494 26105 ft 499 kts 123°
2026-05-07 05:24 41.24913 -75.61279 25620 ft 494 kts 125°
2026-05-07 05:25 41.23501 -75.57132 25139 ft 490 kts 126°
2026-05-07 05:25 41.22079 -75.53060 24643 ft 486 kts 126°
2026-05-07 05:25 41.20650 -75.48975 24176 ft 484 kts 126°
2026-05-07 05:25 41.19253 -75.44934 23721 ft 483 kts 126°
2026-05-07 05:26 41.17872 -75.40879 23190 ft 481 kts 124°
2026-05-07 05:26 41.16531 -75.36873 22869 ft 465 kts 124°
2026-05-07 05:26 41.15276 -75.33047 22891 ft 437 kts 124°
2026-05-07 05:26 41.14081 -75.29411 22556 ft 428 kts 125°
2026-05-07 05:27 41.12874 -75.25817 22222 ft 422 kts 125°
2026-05-07 05:27 41.11677 -75.22302 21850 ft 418 kts 126°
2026-05-07 05:27 41.10479 -75.18805 21511 ft 414 kts 125°
2026-05-07 05:27 41.09288 -75.15334 21152 ft 410 kts 125°
2026-05-07 05:28 41.08114 -75.11904 20831 ft 407 kts 124°
2026-05-07 05:28 41.06957 -75.08516 20488 ft 403 kts 124°
2026-05-07 05:28 41.05805 -75.05133 20127 ft 400 kts 124°
2026-05-07 05:28 41.04671 -75.01795 19801 ft 396 kts 123°
2026-05-07 05:29 41.03540 -74.98470 19487 ft 393 kts 123°
2026-05-07 05:29 41.02423 -74.95189 19202 ft 389 kts 123°
2026-05-07 05:29 41.01311 -74.91933 18967 ft 387 kts 123°
2026-05-07 05:29 41.00200 -74.88688 18730 ft 385 kts 123°
2026-05-07 05:30 40.99261 -74.85349 18495 ft 390 kts 112°
2026-05-07 05:30 40.98551 -74.81892 18266 ft 389 kts 112°
2026-05-07 05:30 40.97830 -74.78406 18004 ft 386 kts 112°
2026-05-07 05:30 40.97127 -74.75042 17746 ft 384 kts 112°
2026-05-07 05:31 40.96408 -74.71606 17487 ft 381 kts 112°
2026-05-07 05:31 40.95700 -74.68232 17187 ft 381 kts 112°
2026-05-07 05:31 40.94992 -74.64861 16913 ft 379 kts 112°
2026-05-07 05:31 40.94296 -74.61533 16680 ft 373 kts 112°
2026-05-07 05:32 40.93603 -74.58231 16325 ft 371 kts 112°
2026-05-07 05:32 40.92911 -74.54957 15973 ft 369 kts 113°
2026-05-07 05:32 40.92221 -74.51685 15619 ft 368 kts 112°
2026-05-07 05:32 40.91540 -74.48449 15267 ft 366 kts 113°
2026-05-07 05:33 40.90857 -74.45210 14914 ft 364 kts 113°
2026-05-07 05:33 40.90178 -74.41998 14560 ft 362 kts 113°
2026-05-07 05:33 40.89504 -74.38811 14217 ft 360 kts 113°
2026-05-07 05:33 40.88825 -74.35613 13840 ft 358 kts 113°
2026-05-07 05:34 40.88155 -74.32465 13482 ft 356 kts 113°
2026-05-07 05:34 40.87487 -74.29336 13125 ft 353 kts 114°
2026-05-07 05:34 40.86819 -74.26220 12776 ft 350 kts 113°
2026-05-07 05:34 40.86161 -74.23140 12433 ft 349 kts 113°
2026-05-07 05:35 40.85502 -74.20059 12082 ft 347 kts 113°
2026-05-07 05:35 40.84848 -74.17008 11718 ft 345 kts 113°
2026-05-07 05:35 40.84194 -74.13960 11383 ft 343 kts 113°
2026-05-07 05:35 40.83546 -74.10945 11033 ft 342 kts 113°
2026-05-07 05:36 40.82889 -74.07892 10666 ft 341 kts 113°
2026-05-07 05:36 40.82251 -74.04924 10308 ft 340 kts 113°
2026-05-07 05:36 40.81600 -74.01890 9959 ft 339 kts 113°
2026-05-07 05:36 40.80964 -73.98929 9727 ft 332 kts 112°
2026-05-07 05:37 40.80328 -73.95986 9336 ft 331 kts 113°
2026-05-07 05:37 40.79696 -73.93076 8951 ft 330 kts 112°
2026-05-07 05:37 40.79067 -73.90196 8789 ft 323 kts 112°
2026-05-07 05:37 40.78376 -73.87405 8658 ft 317 kts 121°
2026-05-07 05:38 40.77342 -73.84900 8420 ft 304 kts 133°
2026-05-07 05:38 40.76158 -73.82620 8114 ft 302 kts 133°
2026-05-07 05:38 40.74970 -73.80332 7790 ft 300 kts 132°
2026-05-07 05:38 40.73795 -73.78062 7463 ft 299 kts 132°
2026-05-07 05:39 40.72622 -73.75800 7152 ft 298 kts 132°
2026-05-07 05:39 40.71470 -73.73570 6900 ft 287 kts 132°
2026-05-07 05:39 40.70390 -73.71455 6700 ft 271 kts 132°
2026-05-07 05:39 40.69344 -73.69417 6295 ft 270 kts 132°
2026-05-07 05:40 40.68297 -73.67399 5938 ft 262 kts 132°
2026-05-07 05:40 40.67303 -73.65475 5675 ft 251 kts 132°
2026-05-07 05:40 40.66335 -73.63603 5366 ft 241 kts 132°
2026-05-07 05:40 40.65408 -73.61817 5100 ft 231 kts 132°
2026-05-07 05:41 40.64520 -73.60108 4850 ft 221 kts 133°
2026-05-07 05:41 40.63685 -73.58498 4626 ft 208 kts 133°
2026-05-07 05:41 40.62883 -73.56959 4355 ft 199 kts 132°
2026-05-07 05:41 40.62119 -73.55496 4126 ft 190 kts 132°
2026-05-07 05:42 40.61386 -73.54095 3911 ft 180 kts 131°
2026-05-07 05:42 40.60699 -73.52778 3740 ft 170 kts 131°
2026-05-07 05:42 40.60035 -73.51512 3694 ft 166 kts 131°
2026-05-07 05:42 40.59386 -73.50273 3634 ft 164 kts 131°
2026-05-07 05:43 40.58716 -73.49061 3572 ft 161 kts 143°
2026-05-07 05:43 40.57799 -73.48376 3525 ft 147 kts 178°
2026-05-07 05:43 40.56830 -73.48459 3476 ft 136 kts 208°
2026-05-07 05:43 40.56077 -73.49140 3432 ft 132 kts 234°
2026-05-07 05:44 40.55617 -73.50202 3409 ft 135 kts 245°
2026-05-07 05:44 40.55186 -73.51327 3407 ft 135 kts 244°
2026-05-07 05:44 40.54760 -73.52433 3366 ft 136 kts 246°
2026-05-07 05:44 40.54559 -73.53629 3332 ft 136 kts 269°
2026-05-07 05:45 40.54774 -73.54838 3299 ft 139 kts 291°
2026-05-07 05:45 40.55268 -73.55925 3273 ft 136 kts 296°
2026-05-07 05:45 40.55755 -73.56987 3226 ft 135 kts 296°
2026-05-07 05:45 40.56238 -73.58046 3121 ft 135 kts 296°
2026-05-07 05:46 40.56721 -73.59103 2966 ft 134 kts 297°
2026-05-07 05:46 40.57202 -73.60157 2806 ft 134 kts 296°
2026-05-07 05:46 40.57680 -73.61206 2637 ft 134 kts 296°
2026-05-07 05:46 40.58156 -73.62249 2459 ft 133 kts 297°
2026-05-07 05:47 40.58633 -73.63295 2283 ft 133 kts 297°
2026-05-07 05:47 40.59108 -73.64338 2104 ft 133 kts 299°
2026-05-07 05:47 40.59583 -73.65381 1944 ft 132 kts 306°
2026-05-07 05:47 40.60038 -73.66426 1808 ft 132 kts 300°
2026-05-07 05:48 40.60335 -73.67128 1739 ft 131 kts 301°
2026-05-07 05:48 40.60802 -73.68160 1620 ft 132 kts 304°
2026-05-07 05:48 40.61296 -73.69196 1418 ft 133 kts 305°
2026-05-07 05:48 40.61787 -73.70210 1244 ft 131 kts 305°
2026-05-07 05:49 40.62261 -73.71232 1037 ft 130 kts 303°
2026-05-07 05:49 40.62710 -73.72259 800 ft 129 kts 303°
2026-05-07 05:49 40.63159 -73.73282 554 ft 130 kts 303°
2026-05-07 05:49 40.63637 -73.74295 378 ft 132 kts 302°
2026-05-07 05:50 40.64091 -73.75327 160 ft 129 kts 302°
2026-05-07 05:50 40.64551 -73.76335 25 ft 124 kts 302°
2026-05-07 05:50 40.64854 -73.76972 22 ft 40 kts 300°
2026-05-07 05:50 40.64910 -73.77105 22 ft 14 kts 298°
2026-05-07 05:51 40.64961 -73.77225 22 ft 16 kts 300°
2026-05-07 05:51 40.65017 -73.77361 20 ft 16 kts 285°
2026-05-07 05:51 40.64957 -73.77484 20 ft 18 kts 220°
2026-05-07 05:51 40.64877 -73.77517 20 ft 12 kts 128°
2026-05-07 05:52 40.64830 -73.77416 20 ft 14 kts 121°
2026-05-07 05:52 40.64777 -73.77299 20 ft 16 kts 121°
2026-05-07 05:52 40.64715 -73.77164 20 ft 18 kts 123°
2026-05-07 05:52 40.64608 -73.77087 20 ft 19 kts 172°
2026-05-07 05:53 40.64472 -73.77092 20 ft 20 kts 189°
2026-05-07 05:53 40.64457 -73.77207 20 ft 15 kts 300°
2026-05-07 05:53 40.64473 -73.77294 21 ft 10 kts 272°
2026-05-07 05:53 40.64472 -73.77394 20 ft 11 kts 269°
2026-05-07 05:54 40.64452 -73.77456 20 ft 8 kts 221°
2026-05-07 05:54 40.64407 -73.77493 22 ft 0 kts 209°
2026-05-07 05:54 40.64404 -73.77495 21 ft 2 kts 209°
2026-05-07 05:54 40.64396 -73.77506 22 ft 2 kts 238°
2026-05-07 05:55 40.64403 -73.77534 22 ft 4 kts 312°
2026-05-07 05:55 40.64423 -73.77550 20 ft 3 kts 328°
2026-05-07 05:55 40.64431 -73.77556 20 ft 0 kts 328°